Delavan, Wisconsin, United States (53115)
Lat: 42.63N, Lon: 88.64W
Wx Zone: WIZ070
Local Info
Past Weather Observations for Today

NOTE: This archive is for the closest National Weather Service station to Delavan. Information may differ from the station used for current weather conditions.

Click here for Long-term Archive

Time Weather Temperature Dewpoint Humidity Pressure Winds Precip Visibility
07:35
Overcast
Fog And Mist
34°F / 1°C 34°F / 1°C 100% 29.98 in
(1015 mb)
SSE 12.7 mph
(SSE 20 kph)
- 1SM
07:15
Overcast
Fog And Mist
34°F / 1°C 32°F / 0°C 93% 29.98 in
(1015 mb)
SW 11.5 mph
(SW 19 kph)
- 1 1/4SM
06:55
Overcast
Fog And Mist
32°F / 0°C 32°F / 0°C 100% 29.98 in
(1015 mb)
SW 12.7 mph
(SW 20 kph)
- 1 1/4SM
06:35
Overcast
Fog And Mist
32°F / 0°C 32°F / 0°C 100% 29.98 in
(1015 mb)
SW 12.7 mph
(SW 20 kph)
- 4SM
06:15
Overcast
Fog And Mist
32°F / 0°C 32°F / 0°C 100% 29.98 in
(1015 mb)
SW 13.8 mph
(SW 22 kph)
- 5SM
05:55
Overcast
Fog And Mist
32°F / 0°C 32°F / 0°C 100% 30.01 in
(1016 mb)
SW 12.7 mph
(SW 20 kph)
- 5SM
05:35
Overcast
Fog And Mist
32°F / 0°C 32°F / 0°C 100% 30.01 in
(1016 mb)
SW 15 mph
(SW 24 kph)
- 5SM
05:15
Overcast
Unknown Precip
32°F / 0°C 32°F / 0°C 100% 30.01 in
(1016 mb)
SW 12.7 mph
(SW 20 kph)
- 5SM
04:55
Overcast
32°F / 0°C 32°F / 0°C 100% 30.01 in
(1016 mb)
SW 12.7 mph
(SW 20 kph)
0.01 in
(0.25 mm)
7SM
04:35
Overcast
Unknown Precip
32°F / 0°C 30°F / -1°C 93% 30.01 in
(1016 mb)
SW 11.5 mph
(SW 19 kph)
0.01 in
(0.25 mm)
5SM
04:15
Overcast
Unknown Precip
32°F / 0°C 30°F / -1°C 93% 30.01 in
(1016 mb)
SW 10.4 mph
(SW 17 kph)
0.01 in
(0.25 mm)
4SM
03:55
Overcast
Unknown Precip
32°F / 0°C 30°F / -1°C 93% 30.04 in
(1017 mb)
SW 11.5 mph
(SW 19 kph)
0.05 in
(1.27 mm)
5SM
03:35
Overcast
Light Snow
30°F / -1°C 28°F / -2°C 93% 30.04 in
(1017 mb)
SW 10.4 mph
(SW 17 kph)
0.03 in
(0.76 mm)
4SM
03:15
Overcast
Unknown Precip
30°F / -1°C 28°F / -2°C 93% 30.04 in
(1017 mb)
SSE 12.7 mph
(SSE 20 kph)
- 5SM
02:55
Overcast
30°F / -1°C 27°F / -3°C 86% 30.06 in
(1018 mb)
SSE 13.8 mph
(SSE 22 kph)
- 10SM
02:35
Overcast
30°F / -1°C 27°F / -3°C 86% 30.06 in
(1018 mb)
SW 10.4 mph
(SW 17 kph)
- 7SM
02:15
Overcast
30°F / -1°C 25°F / -4°C 80% 30.06 in
(1018 mb)
SW 13.8 mph
(SW 22 kph)
- 10SM
01:55
Overcast
Unknown Precip
30°F / -1°C 23°F / -5°C 75% 30.06 in
(1018 mb)
SSE 12.7 mph
(SSE 20 kph)
0.01 in
(0.25 mm)
5SM
01:35
Overcast
32°F / 0°C 19°F / -7°C 60% 30.06 in
(1018 mb)
SSE 16.1 mph
(SSE 26 kph)
- 10SM
01:15
Overcast
32°F / 0°C 19°F / -7°C 60% 30.06 in
(1018 mb)
SSE 16.1 mph
(SSE 26 kph)
- 10SM
00:55
Overcast
32°F / 0°C 18°F / -8°C 55% 30.09 in
(1019 mb)
S 17.3 mph
(S 28 kph)
- 10SM
00:35
Overcast
32°F / 0°C 16°F / -9°C 51% 30.09 in
(1019 mb)
S 17.3 mph
(S 28 kph)
- 10SM
00:15
Overcast
32°F / 0°C 16°F / -9°C 51% 30.09 in
(1019 mb)
SSE 13.8 mph
(SSE 22 kph)
- 10SM
Time Weather Temperature Dewpoint Humidity Pressure Winds Precip Visibility


Weather for websites

WeatherForYou.com, LLC is not responsible for any damages or problems caused by this service. Current weather conditions are obtained from the closest station including government and personal stations which may have varying degrees of accuracy. Weather forecasts are derived from the NOAA NDFD. Like all things, this site belongs to Jesus Christ... He just trusts me to maintain it. If you have any questions or comments email webmaster@weatherforyou.com

Copyright © 2014, WeatherForYou.com LLC. All rights reserved.